Date String (YYYY-MM-DD hh:mm:ss) UTC,Instrument flags,absolute air pressure of the measurement (hPa),sample flow rate (lpm),inlet stack bypass flow (lpm),air temperature of the measurement (°C),ambient temperature measured by the external sensor (°C),aerosol sample conditioner tube jacket temperature (°C),OPC LED temperature (°C),internal box temperature (°C),relative humidity of the measurement (%),span deviation,mass concentration of particles derived from Lorenz-Mie calculation of OPC scattering (μg/m³),mass concentration of particles derived from Lorenz-Mie calculation of OPC scattering (μg/m³),mass concentration of particles derived from Lorenz-Mie calculation of OPC scattering (μg/m³)
DateTimeUTC,F1_M11,P_M11,Q1_M11,Q2_M11,T1_M11,T2_M11,T3_M11,T4_M11,T5_M11,U1_M11,ZSPAN_M11,X0_M11,X2_M11,X1_M11
2024-05-21 07:00:00,SystemResetWarning,0824.3,5.00,000.00,028.9,028.1,000.0,037.4,030.7,020.8,0000.0,0004.97,0001.79,0001.38
2024-05-21 07:01:00,SystemResetWarning,0824.2,5.00,000.00,028.9,028.1,000.0,037.4,030.7,020.8,0000.0,0004.54,0001.78,0001.38
2024-05-21 07:02:00,SystemResetWarning,0824.3,5.00,000.00,028.9,028.1,000.0,037.4,030.7,020.8,0000.0,0003.65,0001.81,0001.38
2024-05-21 07:03:00,SystemResetWarning,0824.3,5.00,000.00,028.9,028.1,000.0,037.4,030.7,020.8,0000.0,0003.60,0001.80,0001.38
2024-05-21 07:04:00,SystemResetWarning,0824.4,5.00,000.00,028.9,028.1,000.0,037.4,030.7,020.9,0000.0,0003.64,0001.79,0001.39
2024-05-21 07:05:00,SystemResetWarning,0824.4,5.00,000.00,028.9,028.1,000.0,037.4,030.7,020.9,0000.0,0002.91,0001.78,0001.39
2024-05-21 07:06:00,SystemResetWarning,0824.4,5.00,000.00,028.9,028.1,000.0,037.4,030.7,021.0,0000.0,0002.64,0001.76,0001.40
2024-05-21 07:07:00,SystemResetWarning,0824.4,5.00,000.00,028.9,028.1,000.0,037.4,030.7,021.0,0000.0,0002.66,0001.79,0001.41
2024-05-21 07:08:00,SystemResetWarning,0824.4,5.00,000.00,028.9,028.1,000.0,037.4,030.7,021.0,0000.0,0002.65,0001.80,0001.42
2024-05-21 07:09:00,SystemResetWarning,0824.4,5.01,000.00,028.9,028.1,000.0,037.4,030.7,021.0,0000.0,0002.69,0001.82,0001.45
2024-05-21 07:10:00,SystemResetWarning,0824.4,5.00,000.00,028.9,028.1,000.0,037.4,030.7,021.0,0000.0,0002.68,0001.83,0001.45
2024-05-21 07:11:00,SystemResetWarning,0824.4,5.00,000.00,028.9,028.1,000.0,037.4,030.7,021.0,0000.0,0002.83,0001.87,0001.45
2024-05-21 07:12:00,SystemResetWarning,0824.3,5.01,000.00,028.9,028.1,000.0,037.4,030.7,021.1,0000.0,0002.93,0001.88,0001.45
2024-05-21 07:13:00,SystemResetWarning,0824.3,5.00,000.00,028.9,028.1,000.0,037.4,030.7,021.0,0000.0,0002.96,0001.89,0001.46
2024-05-21 07:14:00,SystemResetWarning,0824.3,5.00,000.00,028.9,028.1,000.0,037.4,030.7,021.0,0000.0,0003.61,0001.94,0001.49
2024-05-21 07:15:00,SystemResetWarning,0824.4,5.00,000.00,028.9,028.1,000.0,037.4,030.7,021.1,0000.0,0003.82,0001.95,0001.50
2024-05-21 07:16:00,SystemResetWarning,0824.4,5.01,000.00,028.9,028.1,000.0,037.4,030.6,021.1,0000.0,0003.67,0001.93,0001.52
2024-05-21 07:17:00,SystemResetWarning,0824.4,5.02,000.00,028.9,028.1,000.0,037.4,030.7,021.1,0000.0,0003.71,0001.93,0001.53
2024-05-21 07:18:00,SystemResetWarning,0824.4,4.99,000.00,028.9,028.1,000.0,037.4,030.7,021.1,0000.0,0003.77,0001.97,0001.55
2024-05-21 07:19:00,SystemResetWarning,0824.3,4.98,000.00,028.9,028.1,000.0,037.4,030.7,021.0,0000.0,0003.92,0002.04,0001.57
2024-05-21 07:20:00,SystemResetWarning,0824.3,5.01,000.00,028.9,028.1,000.0,037.4,030.7,021.1,0000.0,0004.10,0002.07,0001.58
2024-05-21 07:21:00,SystemResetWarning,0824.3,5.01,000.00,028.9,028.1,000.0,037.4,030.7,021.1,0000.0,0004.23,0002.12,0001.60
2024-05-21 07:22:00,SystemResetWarning,0824.4,4.99,000.00,028.9,028.1,000.0,037.4,030.6,021.2,0000.0,0004.18,0002.12,0001.63
2024-05-21 07:23:00,SystemResetWarning,0824.4,4.99,000.00,028.9,028.1,000.0,037.4,030.6,021.2,0000.0,0005.27,0002.16,0001.64
2024-05-21 07:24:00,SystemResetWarning,0824.4,5.00,000.00,028.9,028.1,000.0,037.4,030.6,021.2,0000.0,0005.37,0002.17,0001.65
2024-05-21 07:25:00,SystemResetWarning,0824.4,5.02,000.00,028.9,028.1,000.0,037.3,030.6,021.3,0000.0,0004.79,0002.17,0001.66
2024-05-21 07:26:00,SystemResetWarning,0824.4,5.01,000.00,028.8,028.1,000.0,037.3,030.6,021.3,0000.0,0004.54,0002.19,0001.69
2024-05-21 07:27:00,SystemResetWarning,0824.3,5.00,000.00,028.9,028.1,000.0,037.3,030.6,021.3,0000.0,0004.55,0002.24,0001.72
2024-05-21 07:28:00,SystemResetWarning,0824.4,4.99,000.00,028.9,028.1,000.0,037.3,030.7,021.3,0000.0,0004.66,0002.31,0001.74
2024-05-21 07:29:00,SystemResetWarning,0824.4,4.99,000.00,028.9,028.1,000.0,037.4,030.6,021.3,0000.0,0004.63,0002.30,0001.75
2024-05-21 07:30:00,SystemResetWarning,0824.4,5.01,000.00,028.9,028.1,000.0,037.3,030.7,021.2,0000.0,0004.53,0002.24,0001.76
2024-05-21 07:31:00,SystemResetWarning,0824.4,5.01,000.00,028.8,028.1,000.0,037.3,030.6,021.2,0000.0,0004.28,0002.21,0001.79
2024-05-21 07:32:00,SystemResetWarning,0824.4,5.00,000.00,028.8,028.1,000.0,037.3,030.6,021.1,0000.0,0004.25,0002.21,0001.80
2024-05-21 07:33:00,SystemResetWarning,0824.4,4.99,000.00,028.8,028.1,000.0,037.3,030.6,021.1,0000.0,0004.28,0002.22,0001.80
2024-05-21 07:34:00,SystemResetWarning,0824.4,5.00,000.00,028.8,028.1,000.0,037.3,030.6,021.1,0000.0,0003.16,0002.21,0001.83
2024-05-21 07:35:00,SystemResetWarning,0824.4,5.00,000.00,028.8,028.1,000.0,037.3,030.6,021.1,0000.0,0003.00,0002.22,0001.85
2024-05-21 07:36:00,SystemResetWarning,0824.4,5.00,000.00,028.8,028.1,000.0,037.3,030.6,021.1,0000.0,0003.03,0002.23,0001.85
2024-05-21 07:37:00,SystemResetWarning,0824.3,5.00,000.00,028.8,028.0,000.0,037.3,030.6,021.1,0000.0,0003.08,0002.24,0001.84
2024-05-21 07:38:00,SystemResetWarning,0824.3,5.02,000.00,028.8,028.0,000.0,037.3,030.6,021.1,0000.0,0003.03,0002.22,0001.81
2024-05-21 07:39:00,SystemResetWarning,0824.3,5.01,000.00,028.8,028.0,000.0,037.3,030.6,021.0,0000.0,0002.91,0002.17,0001.80
2024-05-21 07:40:00,SystemResetWarning,0824.3,5.00,000.00,028.8,028.0,000.0,037.3,030.6,021.0,0000.0,0002.92,0002.15,0001.78
2024-05-21 07:41:00,SystemResetWarning,0824.3,4.99,000.00,028.8,028.0,000.0,037.3,030.6,020.9,0000.0,0003.01,0002.17,0001.76
2024-05-21 07:42:00,SystemResetWarning,0824.3,5.01,000.00,028.8,028.0,000.0,037.3,030.6,021.0,0000.0,0003.06,0002.17,0001.73
2024-05-21 07:43:00,SystemResetWarning,0824.2,5.00,000.00,028.8,028.0,000.0,037.3,030.6,020.9,0000.0,0003.03,0002.15,0001.70
2024-05-21 07:44:00,SystemResetWarning,0824.2,4.99,000.00,028.8,028.0,000.0,037.3,030.6,021.0,0000.0,0002.93,0002.11,0001.68
2024-05-21 07:45:00,SystemResetWarning,0824.2,5.00,000.00,028.8,028.0,000.0,037.3,030.6,020.9,0000.0,0002.84,0002.06,0001.66
2024-05-21 07:46:00,SystemResetWarning,0824.1,4.99,000.00,028.8,028.0,000.0,037.3,030.6,020.9,0000.0,0002.84,0002.04,0001.63
2024-05-21 07:47:00,SystemResetWarning,0824.1,5.00,000.00,028.8,028.0,000.0,037.3,030.6,020.9,0000.0,0003.12,0002.06,0001.60
2024-05-21 07:48:00,SystemResetWarning,0824.1,5.01,000.00,028.8,028.0,000.0,037.3,030.6,021.0,0000.0,0003.89,0002.09,0001.59
2024-05-21 07:49:00,SystemResetWarning,0824.2,5.01,000.00,028.8,028.0,000.0,037.3,030.6,021.0,0000.0,0004.03,0002.11,0001.59
2024-05-21 07:50:00,SystemResetWarning,0824.2,5.00,000.00,028.8,028.0,000.0,037.3,030.6,021.0,0000.0,0004.23,0002.13,0001.60
2024-05-21 07:51:00,SystemResetWarning,0824.2,5.00,000.00,028.8,028.0,000.0,037.3,030.6,021.0,0000.0,0004.59,0002.15,0001.59
2024-05-21 07:52:00,SystemResetWarning,0824.1,5.00,000.00,028.8,028.0,000.0,037.3,030.6,020.9,0000.0,0004.53,0002.11,0001.60
2024-05-21 07:53:00,SystemResetWarning,0824.1,5.00,000.00,028.8,028.0,000.0,037.3,030.6,020.9,0000.0,0004.57,0002.12,0001.61
2024-05-21 07:54:00,SystemResetWarning,0824.1,5.00,000.00,028.8,028.0,000.0,037.3,030.6,021.0,0000.0,0005.41,0002.10,0001.61
2024-05-21 07:55:00,SystemResetWarning,0824.2,5.00,000.00,028.8,028.0,000.0,037.3,030.6,021.0,0000.0,0005.56,0002.10,0001.60
2024-05-21 07:56:00,SystemResetWarning,0824.1,5.00,000.00,028.8,028.0,000.0,037.3,030.6,021.0,0000.0,0005.67,0002.12,0001.60
2024-05-21 07:57:00,SystemResetWarning,0824.1,4.99,000.00,028.8,028.0,000.0,037.3,030.6,021.0,0000.0,0005.70,0002.12,0001.61
2024-05-21 07:58:00,SystemResetWarning,0824.1,5.00,000.00,028.8,028.0,000.0,037.3,030.6,021.0,0000.0,0005.58,0002.06,0001.61
2024-05-21 07:59:00,SystemResetWarning,0824.1,5.01,000.00,028.8,028.0,000.0,037.3,030.6,020.9,0000.0,0004.72,0002.01,0001.60
